Location: Unspecified
(0.0000°N, 0.0000°E)
Time: 18:12:55
(UTC+00:00)

Vanguard 1 Rocket - Pass Details

Date: 16 April 2026
Orbit: 655 x 4212 km, 34.3° (Epoch: 17 May)

Event Time Altitude Azimuth Distance (km) Brightness Sun altitude
Rises 20:53:40 0° 260° (W) 7,104 12.6 -42.6°
Reaches altitude 10° 20:58:29 10° 267° (W) 6,480 12.3 -43.8°
Maximum altitude 21:19:26 40° 330° (NNW) 5,274 11.2 -48.8°
Drops below altitude 10° 21:42:03 10° 34° (NE) 6,806 11.7 -54.2°
Sets 21:47:29 0° 42° (NE) 7,455 11.9 -55.5°
